Weather History for Ozark, AL

Change the Weather History Date:

Sunday, October 27, 2013

  Actual Average Record
Temperature  
Mean Temperature 58 °F -  
Max Temperature 74 °F 74 °F 88 °F (2010)
Min Temperature 42 °F 51 °F 37 °F (2005)
Degree Days  
Heating Degree Days 7    
Growing Degree Days 8 (Base 50)    
Moisture  
Dew Point 47 °F    
Average Humidity 69    
Maximum Humidity 93    
Minimum Humidity 40    
Precipitation  
Precipitation 0.00 in - - ()
Sea Level Pressure  
Sea Level Pressure 30.16 in    
Wind  
Wind Speed 2 mph (NNE)    
Max Wind Speed 5 mph    
Max Gust Speed -    
Visibility 10 miles    
Events      
Averages and records for this station are not official NWS values.
T = Trace of Precipitation, MM = Missing Value Source: NWS Daily Summary

Daily Weather History Graph

Daily Weather History Graph

Search for Another Location

Airport:

Trip Planner

Search our weather history database for the weather conditions in past years. The results will help you decide how hot, cold, wet, or windy it might be!

Date:

Astronomy

Oct. 27, 2013 Rise Set
Actual Time 6:54 AM CDT 5:58 PM CDT
Civil Twilight 6:29 AM CDT 6:23 PM CDT
Nautical Twilight 6:01 AM CDT 6:51 PM CDT
Astronomical Twilight 5:33 AM CDT 7:19 PM CDT
Moon 12:16 AM CDT (10/27) 1:43 PM CDT (10/27)
Length of Visible Light 11h 53m
Length of Day
11h 03m
Last Quarter, 43% of the Moon is Illuminated
Oct 27
Last Quarter
Nov 3
New
Nov 9
First Quarter
Nov 17
Full
Nov 25
Last Quarter

Hourly Weather History & Observations

Time (CDT) Temp. Windchill Dew Point Humidity Pressure Visibility Wind Dir Wind Speed Gust Speed Precip Events Conditions
12:58 AM 46.4 °F - 42.4 °F 86% 30.17 in 10.0 mi NW 2.3 mph - N/A   Clear
1:58 AM 44.8 °F - 42.1 °F 90% 30.16 in 10.0 mi Calm Calm - N/A   Clear
2:58 AM 43.7 °F - 41.2 °F 91% 30.14 in 10.0 mi East 2.3 mph - N/A   Clear
3:58 AM 44.4 °F - 42.3 °F 92% 30.14 in 9.0 mi Calm Calm - N/A   Clear
4:58 AM 42.4 °F - 40.5 °F 93% 30.14 in 10.0 mi Calm Calm - N/A   Clear
5:58 AM 42.8 °F - 40.6 °F 92% 30.15 in 10.0 mi Calm Calm - N/A   Clear
6:58 AM 42.3 °F 40.5 °F 40.1 °F 92% 30.17 in 10.0 mi NNE 3.5 mph - N/A   Clear
7:58 AM 46.8 °F - 43.5 °F 88% 30.17 in 10.0 mi North 2.3 mph - N/A   Clear
8:58 AM 53.2 °F - 42.3 °F 66% 30.19 in 10.0 mi NE 4.6 mph - N/A   Clear
9:58 AM 61.0 °F - 40.8 °F 47% 30.20 in 10.0 mi Variable 4.6 mph - N/A   Clear
10:58 AM 65.5 °F - 42.4 °F 43% 30.21 in 10.0 mi ESE 2.3 mph - N/A   Clear
11:58 AM 68.4 °F - 43.7 °F 41% 30.19 in 10.0 mi Variable 2.3 mph - N/A   Clear
12:58 PM 70.9 °F - 46.2 °F 41% 30.16 in 10.0 mi Variable 2.3 mph - N/A   Clear
1:58 PM 73.4 °F - 48.2 °F 41% 30.13 in 10.0 mi SW 4.6 mph - N/A   Clear
2:58 PM 73.0 °F - 48.6 °F 42% 30.13 in 10.0 mi SW 3.5 mph - N/A   Clear
3:58 PM 74.1 °F - 48.4 °F 40% 30.12 in 10.0 mi Variable 3.5 mph - N/A   Clear
4:58 PM 71.8 °F - 50.4 °F 47% 30.12 in 10.0 mi WSW 2.3 mph - N/A   Clear
5:58 PM 67.5 °F - 53.2 °F 60% 30.12 in 10.0 mi NNE 2.3 mph - N/A   Partly Cloudy
6:58 PM 64.2 °F - 52.7 °F 66% 30.13 in 10.0 mi ESE 1.2 mph - N/A   Partly Cloudy
7:58 PM 61.9 °F - 54.0 °F 75% 30.15 in 10.0 mi WNW 4.6 mph - N/A   Mostly Cloudy
8:58 PM 61.5 °F - 54.0 °F 76% 30.16 in 10.0 mi Calm Calm - N/A   Mostly Cloudy
9:58 PM 59.9 °F - 53.4 °F 79% 30.16 in 10.0 mi NNE 2.3 mph - N/A   Clear
10:58 PM 58.6 °F - 53.6 °F 83% 30.15 in 10.0 mi Calm Calm - N/A   Mostly Cloudy
11:58 PM 59.0 °F - 55.2 °F 87% 30.16 in 10.0 mi Calm Calm - N/A   Overcast